TISAT 1

Last updated on Sun Apr 12 2026 00:03:55 GMT+0000 (Coordinated Universal Time)

1 36799U 10035E 26101.29499530 .00016159 00000+0 57188-3 0 9997 2 36799 98.0665 42.0699 0004630 107.5453 252.6291 15.29234056857473
UTC large
Height (km)
Speed (km/s)
/
Latitude / Longitude
Inclination (degrees)
Orbital Period (minutes)
Azimuth
Elevation
Range (km)
Doppler Factor

Next 0 passes for location: London (51.5072 / 0.1276)

Sorry there are no passes over London.
TISAT 1